THOR ABLESTAR DEB, 357

Orbit data source: Space-Track

THOR ABLESTAR DEB, 357 is space debris in LEO originally from a launch on Thu, 29 Jun 1961 UTC launched from the Air Force Eastern Test Range (AFETR). Debris objects in space refer to the collection of defunct objects orbiting the Earth. Examples of debris include non-operational satellites, rocket bodies, and fragments generated from explosions, collisions, or faulty payload assembly.

Loading next visibility...
Identifier
357, 1961-015DX
Orbit
LEO
Country
Flag of USUS
Related business
Manufacturer
Unknown
Mission
Spacecraft
Bus & Motor
Unknown
Mass
Unknown
Launch date (UTC)
1961-06-29 (64 years ago)
Launch vehicle
Unknown
Launch site
Air Force Eastern Test Range (AFETR)
Object type
Payload
Rocket body
Debris
Shape & HBR
Unknown
Radar Cross Section
Small (<0.1 m²)

Expand to show TLE details & history
Last TLE update: 14 hours ago

TLE from 14 hours ago
0 THOR ABLESTAR DEB
1 00357U 61015DX  25259.13059298  .00001214  00000-0  74869-3 0  9993
2 00357  66.8075 215.8995 0008043 344.9006  15.1841 14.08814509257249
Epoch: 2025-09-16T03:08Z
TLE epoch observation values (Epoch: 2025-09-16T03:08:03.233Z)
Latitude
Longitude
173.56072°
Altitude
859.904 km
Speed
7.426 km/s
True Right ascension
14h 23m 35s
True Declination
0° 00' 00"
Sunlit
Object was in daylight at epoch
Visualization orbit readout
Latitude
Unknown
Longitude
Unknown
Altitude
Unknown
Speed
Unknown
Apparent Right ascension
Unknown
Apparent Declination
Unknown
Sunlit
N/A
Visualization observer readout
Local Sidereal Time
09:35:57
Azimuth
Unknown
Elevation
Unknown
Doppler factor
Unknown
Orbital elements
Apogee altitude
867.633 km
Perigee altitude
855.987 km
Semi-major axis
7,239.947 km
Eccentricity
0.0008
Inclination
66.8075°
RAAN
215.8995°
Arg. of periapsis
344.9006°
True anomaly
15.20826°
Mean anomaly
15.1841°
Eccentric anomaly
15.19618°
Mean motion
3.52322 °/min
Orbital period
102.18 mins
BSTAR
0.00074869
Loading maneuver chart data...
Computing Atmospheric mass density...

Documentation

Showing up to 5 results
|